Weather Roundup
Issued by NWS

Home | Current Version | Previous Version | Graphics & Text | Print | Product List | Glossary Off
Versions: 1 2 3 4 5 6 7 8 9 10 11 12 13 14 15 16 17 18 19 20 21 22 23 24 25 26 27 28 29 30 31 32 33 34 35 36 37 38 39 40 41 42 43 44 45 46 47 48 49 50

000
NZUS93 KARX 221610
HRRWXR

CURRENT HOURLY OBSERVATIONS ACROSS
MUCH OF THE UPPER MISSISSIPPI VALLEY
NATIONAL WEATHER SERVICE LA CROSSE WI
1100 AM CDT TUE JUL 22 2014


...SOUTHEAST MINNESOTA...


CITY           SKY/WX    TMP DP  RH WIND       PRES   REMARKS
ROCHESTER      MOSUNNY   79  67  66 NW15G22   29.97R
ROCHESTER/MAYO FAIR      78  63  59 NW14G26   29.95R
WINONA         MOSUNNY   86  70  58 NW12      29.89R HX  90
AUSTIN         MOSUNNY   81  66  61 NW14G20   29.95R
ALBERT LEA     MOSUNNY   79  66  65 N12       29.96S
DODGE CENTER   MOSUNNY   77  66  69 NW13      29.96R
PRESTON        SUNNY     82  73  74 N9        29.93S
OWATONNA       MOSUNNY   79  64  61 NW16      29.97F
FARIBAULT      MOSUNNY   81  63  54 NW9       29.98R
$$

...ELSEWHERE IN MINNESOTA...


CITY           SKY/WX    TMP DP  RH WIND       PRES   REMARKS
MINNEAPOLIS    PTSUNNY   80  65  59 N16       29.97R
INTNL FALLS    MOSUNNY   70  60  70 NW14      29.97R
DULUTH         CLOUDY    71  62  73 NW15G24   29.92R
RED WING       MOSUNNY   82  64  54 NW13      29.94R
REDWOOD FALLS  CLOUDY    73  64  73 NW13G21   30.04R
MANKATO        MOSUNNY   75  64  69 N15G23    30.00R
WORTHINGTON    PTSUNNY   73  64  73 N17       30.08R
FAIRMONT       SUNNY     77  63  61 N16       30.00R
$$

...SOUTHWEST WISCONSIN...


CITY           SKY/WX    TMP DP  RH WIND       PRES   REMARKS
LA CROSSE      SUNNY     88  74  63 SW5       29.88S HX  96
PRAIRIE DU CHI CLOUDY    83  72  69 SW6       29.92F
BOSCOBEL       MOSUNNY   87  74  64 SW9G17    29.93F HX  95
LONE ROCK      CLOUDY    85  73  67 SW12      29.94S HX  91
PLATTEVILLE    MOSUNNY   82  74  75 SW12      29.98S
FORT MC COY    MOSUNNY   83  71  66 W8G16     29.90S
VIROQUA        PTSUNNY   82  74  76 W5        29.94F
WIS DELLS      PTSUNNY   83  69  62 W10G16    29.94S
$$

...ELSEWHERE IN WISCONSIN...


CITY           SKY/WX    TMP DP  RH WIND       PRES   REMARKS
MILWAUKEE      MOSUNNY   83  68  60 SW17      29.96S
MADISON        PTSUNNY   83  71  67 SW9       29.95R
GREEN BAY      CLOUDY    81  71  71 SW10      29.87F
EAU CLAIRE     PTSUNNY   80  65  59 NW10      29.93R
BLACK RVR FLS  PTSUNNY   86  73  63 W10G16    29.87F HX  93
MEDFORD        MOSUNNY   79  67  67 NW17      29.89R
WAUSAU         PTSUNNY   85  72  65 W15       29.86S HX  91
WIS RAPIDS     PTSUNNY   85  73  67 W10       29.89F HX  91
MARSHFIELD     PTSUNNY   84  74  71 W10       29.88F HX  91
RICE LAKE      CLOUDY    76  63  64 NW13G21   29.93F
$$

...NORTHEAST IOWA...


CITY           SKY/WX    TMP DP  RH WIND       PRES   REMARKS
WATERLOO       CLOUDY    83  75  77 NW5       29.95R HX  90
DUBUQUE        PTSUNNY   82  75  79 W15       29.97S
DECORAH        MOSUNNY   82  73  74 CALM      29.93F
MASON CITY     SUNNY     84  68  58 N17       29.97R
CHARLES CITY   SUNNY     84  73  70 NE7       29.92F HX  91
OELWEIN        CLOUDY    82  79  89 VRB3      29.97R HX  93
$$

...ELSEWHERE IN IOWA...


CITY           SKY/WX    TMP DP  RH WIND       PRES   REMARKS
DES MOINES     CLOUDY    87  76  69 CALM      29.96R HX  97
IOWA CITY      MOSUNNY   84  75  74 W13       29.97F HX  92
FORT DODGE     SUNNY     82  70  65 N6        29.99R
MARSHALLTOWN   PTSUNNY   86  77  74 NE8       29.95S HX  97
CEDAR RAPIDS   MOSUNNY   84  75  74 SW10G20   29.96F HX  92
$$

...NORTHERN ILLINOIS...


CITY           SKY/WX    TMP DP  RH WIND       PRES   REMARKS
CHICAGO-OHARE  MOSUNNY   83  65  54 SW16G25   30.00S
DUPAGE         PTSUNNY   83  68  60 SW18      30.02R
CHICAGO-MIDWAY MOSUNNY   84  68  58 SW14G23   30.01S
MOLINE         CLOUDY    83  72  69 W13       29.98R
ROCKFORD       PTSUNNY   83  71  67 SW15      30.00S
STERLING       PTSUNNY   82  72  69 W5        29.98F
PEORIA         PTSUNNY   84  69  60 MISG      30.03F
$$

NOTE: "FAIR" INDICATES FEW OR NO CLOUDS BELOW 12,000 FEET WITH NO
SIGNIFICANT WEATHER AND/OR OBSTRUCTIONS TO VISIBILITY. WIND
SPEEDS ARE IN MILES-PER-HOUR.



USA.gov is the U.S. government's official web portal to all federal, state and local government web resources and services.